Location: Bush Observatory
(40.2653°N, 94.3194°W)
Time: 04:04:57
(UTC-06:00)

Iridium 13 - Visible Passes

Search period start: 18 January 2017 00:00
Search period end: 28 January 2017 00:00
Orbit: 776 x 779 km, 86.4° (Epoch: 17 January)

Date Brightness Start Highest point End Pass type
(mag) Time Alt. Az. Time Alt. Az. Time Alt. Az.
18 Jan 7.2 06:58:03 10° NNE 07:02:53 37° E 07:07:40 10° SSE visible
19 Jan 8.2 06:25:16 10° NNE 06:29:08 20° ENE 06:32:57 10° SE visible
19 Jan 7.7 19:20:45 10° SSE 19:21:08 12° SSE 19:21:08 12° SSE visible
20 Jan 8.6 05:53:51 10° NE 05:55:13 11° ENE 05:56:34 10° E visible
20 Jan 7.3 18:48:17 10° SE 18:49:11 14° SE 18:49:11 14° SE visible
20 Jan 7.6 20:27:57 10° SSW 20:29:46 20° SW 20:29:46 20° SW visible
21 Jan 6.5 06:57:56 10° N 07:03:03 53° E 07:08:08 10° SSE visible
21 Jan 7.4 18:16:59 10° ESE 18:17:31 11° E 18:17:31 11° E visible
21 Jan 6.0 19:53:58 10° S 19:58:08 55° SSW 19:58:08 55° SSW visible
22 Jan 7.6 06:24:51 10° NNE 06:29:23 29° E 06:33:53 10° SE visible
22 Jan 5.4 19:20:32 10° SSE 19:25:39 62° E 19:27:02 45° NNE visible
22 Jan 8.2 21:03:58 10° WSW 21:06:50 15° WNW 21:07:44 14° WNW visible
23 Jan 8.3 05:52:21 10° NE 05:55:33 16° ENE 05:58:45 10° ESE visible
23 Jan 6.1 18:47:39 10° SSE 18:52:17 33° E 18:56:55 10° NNE visible
23 Jan 7.4 20:28:39 10° SW 20:33:00 27° W 20:37:23 10° NNW visible
24 Jan 5.8 06:57:57 10° N 07:03:11 78° E 07:08:24 10° S visible
24 Jan 6.8 18:15:32 10° ESE 18:19:01 18° E 18:22:32 10° NE visible
24 Jan 6.4 19:54:17 10° SSW 19:59:17 49° W 20:04:22 10° N visible
25 Jan 6.9 06:24:38 10° NNE 06:29:35 42° E 06:34:30 10° SSE visible
25 Jan 5.4 19:20:31 10° S 19:25:43 90° E 19:30:59 10° N visible
26 Jan 7.9 05:51:44 10° NNE 05:55:51 23° ENE 05:59:57 10° SE visible
26 Jan 5.7 18:47:18 10° SSE 18:52:17 48° E 18:57:17 10° NNE visible
26 Jan 8.0 20:29:40 10° WSW 20:33:16 19° WNW 20:36:54 10° NNW visible
27 Jan 8.5 05:19:45 10° NE 05:21:59 13° ENE 05:24:12 10° E visible
27 Jan 5.5 06:58:03 10° N 07:03:16 73° W 07:08:28 10° S visible
27 Jan 6.4 18:14:40 10° SE 18:18:57 26° E 18:23:14 10° NNE visible
27 Jan 7.1 19:54:48 10° SW 19:59:29 34° W 20:04:13 10° NNW visible
